Location: Shenandoah County Park
(38.9356°N, 78.4524°W)
Time: 05:53:14
(UTC-04:00)

Explorer 11/Cluster Stage 4 - Pass Details

Date: 02 March 2024
Orbit: 465 x 1220 km, 28.8° (Epoch: 12 April)

Event Time Altitude Azimuth Distance (km) Brightness Sun altitude
Rises 03:08:05 0° 264° (W) 4,132 - -41.5°
Reaches altitude 10° 03:11:36 10° 252° (WSW) 3,160 - -40.9°
Maximum altitude 03:17:44 25° 202° (SSW) 2,182 - -39.9°
Drops below altitude 10° 03:23:28 10° 151° (SSE) 2,935 - -38.9°
Exits shadow 03:24:38 - 145° (SE) 3,233 9.8 -38.7°
Sets 03:26:36 0° 138° (SE) 3,780 10.2 -38.3°
